Regional Weather Roundup
Issued by NWS

Home | Current Version | Previous Version | Text Only | Print | Product List | Glossary Off
Versions: 1 2 3 4 5 6 7 8 9 10 11 12 13 14 15 16 17 18 19 20 21 22 23 24 25 26 27 28 29 30 31 32 33 34 35 36 37 38 39 40 41 42 43 44 45 46 47 48 49 50

000
ASUS43 KBIS 030901
RWRND

NORTH DAKOTA REGIONAL WEATHER ROUNDUP
NATIONAL WEATHER SERVICE BISMARCK ND
300 AM CST TUE MAR 03 2015

NOTE: "FAIR" INDICATES FEW OR NO CLOUDS BELOW 12,000 FEET WITH NO
SIGNIFICANT WEATHER AND/OR OBSTRUCTIONS TO VISIBILITY.


NDZ001>003-009>011-017-031000-
NORTHWEST NORTH DAKOTA

CITY           SKY/WX    TMP DP  RH WIND       PRES   REMARKS
WILLISTON      PTCLDY     7  -3  64 NW18G24   30.04R WCI -12
MINOT          LGT SNOW   8   1  73 NW30      29.92R WCI -15
$$

NDZ018>021-031>035-040>046-031000-
SOUTHWEST NORTH DAKOTA

CITY           SKY/WX    TMP DP  RH WIND       PRES   REMARKS
BISMARCK       CLOUDY    17   9  70 NW25G33   29.89S WCI  -1
DICKINSON      CLOUDY    14   5  67 NW26G37   29.89S WCI  -6
GARRISON         N/A     10   2  69 NW28G40   29.92R WCI -12
HETTINGER ARPT LGT SNOW  14   8  77 N21G32    29.86S WCI  -4
$$

NDZ004>008-012>016-024-026-027-054-031000-
NORTHEAST NORTH DAKOTA

CITY           SKY/WX    TMP DP  RH WIND       PRES   REMARKS
GRAND FORKS    CLOUDY    23  16  74 NW18      29.75R WCI   9
GRND FRKS AFB  CLOUDY    22  14  72 NW17      29.76R WCI   7
DEVILS LAKE    CLOUDY    16   9  73 NW23      29.80R WCI  -2
$$

NDZ022-023-025-028>030-036>039-047>053-031000-
SOUTHEAST NORTH DAKOTA

CITY           SKY/WX    TMP DP  RH WIND       PRES   REMARKS
FARGO          CLOUDY    27  22  81 S14       29.75R WCI  16
JAMESTOWN      CLOUDY    19  13  77 NW23G31   29.77R WCI   2
$$



USA.gov is the U.S. government's official web portal to all federal, state and local government web resources and services.